STARLINK-36957, 67989

Orbit data source: Space-Track

STARLINK-36957, 67989 is a payload satellite owned by SpaceX/Seattle (US) in LEO that was launched on Fri, 27 Feb 2026 UTC via an FALCON 9 launch vehicle from the Air Force Eastern Test Range (AFETR). Payload-class satellites include a variety of spacecraft equipped with specific instruments for various scientific and technological missions. These include communications satellites like Starlink; space stations such as the ISS; scientific satellites like the Hubble; Earth observation satellites from companies like Planet Labs, Umbra, and HawkEye 360; GPS; miniature CubeSats for education and research; and military/defense satellites.

Loading next visibility...
Identifier
67989, 2026-039D
Orbit
LEO
Country
Flag of USUS
Related business
Manufacturer
SpaceX/Seattle
Mission
Operational Commercial Communications
Bus & Motor
STARLINK V2MO, Unknown motor
Mass
575 kg wet, ~530 kg dry
Launch date (UTC)
2026-02-27 (2 months ago)
Launch vehicle
FALCON 9
Launch site
Air Force Eastern Test Range (AFETR)
Object type
Payload
Rocket body
Debris
Shape & HBR
Box + 2 Pan, 17.7 m
Radar Cross Section
36.964 m²

Expand to show TLE details & history
Last TLE update: 7 hours ago

TLE from 7 hours ago
0 STARLINK-36957
1 67989U 26039D   26112.19065910  .00012956  00000-0  47942-3 0  9994
2 67989  42.9982 163.4909 0001576 296.4896  63.5794 15.27586412  8351
Epoch: 2026-04-22T04:34Z
TLE epoch observation values (Epoch: 2026-04-22T04:34:32.946Z)
Latitude
Longitude
-115.40201°
Altitude
482.324 km
Speed
7.626 km/s
True Right ascension
10h 53m 57s
True Declination
0° 00' 00"
Sunlit
Object was in full shadow at epoch
Visualization orbit readout
Latitude
Unknown
Longitude
Unknown
Altitude
Unknown
Speed
Unknown
Apparent Right ascension
Unknown
Apparent Declination
Unknown
Sunlit
N/A
Visualization observer readout
Local Sidereal Time
18:51:07
Azimuth
Unknown
Elevation
Unknown
Doppler factor
Unknown
Orbital elements
Apogee altitude
486.057 km
Perigee altitude
483.894 km
Semi-major axis
6,863.112 km
Eccentricity
0.00016
Inclination
42.9982°
RAAN
163.4909°
Arg. of periapsis
296.4896°
True anomaly
63.59557°
Mean anomaly
63.5794°
Eccentric anomaly
63.58749°
Mean motion
3.81735 °/min
Orbital period
94.31 mins
BSTAR
0.00047942
Loading maneuver chart data...
Computing Atmospheric mass density...
Loading historical data...
Loading historical data...
Loading historical data...
Loading historical data...
Loading historical data...
Loading historical data...
Loading historical data...

Documentation

Showing up to 5 results
|